AL7BX-WX Weather Reports


time (UTC)temp
F
wind
direction
speed
knots
gust
knots
rain 1hr
in
rain 24hr
in
rain mn
in
humidity
%
barometer
mb
20260830224713 83 179 9.6 20.0 0.00 0.00 0.00 32
20260830223603 84 181 7.8 19.1 0.00 0.00 0.00 31
20260830222703 84 174 8.7 20.0 0.00 0.00 0.00 30
20260830221803 84 164 9.6 18.2 0.00 0.00 0.00 29
20260830220903 85 165 9.6 20.9 0.00 0.00 0.00 28
20260830220003 85 171 10.4 20.9 0.00 0.00 0.00 30
20260830215403 86 166 9.6 20.9 0.00 0.00 0.00 29
20260830214503 86 177 8.7 16.5 0.00 0.00 0.00 28
20260830213603 86 180 8.7 14.8 0.00 0.00 0.00 31
20260830212703 86 178 9.6 20.9 0.00 0.00 0.00 30
20260830212012 85 182 9.6 19.1 0.00 0.00 0.00 30
20260830210903 84 184 9.6 19.1 0.00 0.00 0.00 32
20260830210213 84 169 9.6 23.5 0.00 0.00 0.00 31
20260830205403 85 180 10.4 22.6 0.00 0.00 0.00 31
20260830204503 85 164 9.6 21.7 0.00 0.00 0.00 31
20260830203603 84 170 7.8 21.7 0.00 0.00 0.00 32
20260830202703 84 192 7.8 20.0 0.00 0.00 0.00 31
20260830201803 85 179 8.7 18.2 0.00 0.00 0.00 31
20260830200903 85 176 8.7 20.0 0.00 0.00 0.00 31
20260830200003 84 176 9.6 19.1 0.00 0.00 0.00 31
20260830195614 85 178 9.6 20.0 0.00 0.00 0.00 32
20260830194503 85 184 7.0 16.5 0.00 0.00 0.00 32
20260830193813 84 190 8.7 19.1 0.00 0.00 0.00 33
20260830192914 84 189 7.8 17.4 0.00 0.00 0.00 32
20260830191803 84 154 8.7 16.5 0.00 0.00 0.00 33
20260830190903 83 165 9.6 18.2 0.00 0.00 0.00 33
20260830190003 83 173 9.6 18.2 0.00 0.00 0.00 34
20260830185403 83 176 9.6 20.0 0.00 0.00 0.00 32
20260830184503 82 184 11.3 23.5 0.00 0.00 0.00 33
20260830183603 82 179 10.4 22.6 0.00 0.00 0.00 34
20260830182914 82 171 8.7 16.5 0.00 0.00 0.00 34
20260830181803 82 179 9.6 21.7 0.00 0.00 0.00 35
20260830180903 82 175 8.7 19.1 0.00 0.00 0.00 36
20260830180003 82 176 7.8 18.2 0.00 0.00 0.00 37
20260830175613 82 172 7.0 13.9 0.00 0.00 0.00 38
20260830174503 81 162 8.7 16.5 0.00 0.00 0.00 38
20260830173814 80 170 9.6 18.2 0.00 0.00 0.00 38
20260830172913 80 183 8.7 20.0 0.00 0.00 0.00 39
20260830171803 80 187 8.7 17.4 0.00 0.00 0.00 40
20260830170903 79 185 7.8 16.5 0.00 0.00 0.00 40
20260830170213 79 189 8.7 16.5 0.00 0.00 0.00 40
20260830165403 79 184 7.8 16.5 0.00 0.00 0.00 40
20260830164503 78 183 7.0 15.6 0.00 0.00 0.00 42
20260830163603 78 189 6.1 13.9 0.00 0.00 0.00 43
20260830162703 77 187 8.7 13.9 0.00 0.00 0.00 44
20260830161803 77 192 6.1 14.8 0.00 0.00 0.00 44
20260830160903 77 188 7.0 13.0 0.00 0.00 0.00 45
20260830160003 76 185 6.1 13.0 0.00 0.00 0.00 46
20260830155403 76 191 5.2 12.2 0.00 0.00 0.00 47
20260830154503 75 191 5.2 11.3 0.00 0.00 0.00 48
20260830153603 74 186 4.3 9.6 0.00 0.00 0.00 49
20260830152703 74 174 4.3 10.4 0.00 0.00 0.00 49
20260830151803 75 177 4.3 8.7 0.00 0.00 0.00 50
20260830150903 74 149 1.7 4.3 0.00 0.00 0.00 50
20260830150003 74 150 1.7 4.3 0.00 0.00 0.00 52
20260830145403 73 138 2.6 7.8 0.00 0.00 0.00 51
20260830144713 72 112 3.5 8.7 0.00 0.00 0.00 52
20260830143603 71 108 3.5 6.1 0.00 0.00 0.00 53
20260830142912 71 121 2.6 6.1 0.00 0.00 0.00 54
20260830141803 69 151 2.6 6.1 0.00 0.00 0.00 56
20260830141113 69 160 3.5 6.1 0.00 0.00 0.00 57
20260830140003 68 167 3.5 9.6 0.00 0.00 0.00 57
20260830135403 68 174 2.6 7.0 0.00 0.00 0.00 57
20260830134503 68 120 2.6 7.8 0.00 0.00 0.00 57
20260830133603 68 152 1.7 8.7 0.00 0.00 0.00 58
20260830132914 67 177 0.9 4.3 0.00 0.00 0.00 58
20260830131803 67 162 1.7 4.3 0.00 0.00 0.00 59
20260830130903 66 82 0.9 4.3 0.00 0.00 0.00 60
20260830130003 66 27 0.0 1.7 0.00 0.00 0.00 60
20260830125403 66 26 0.0 2.6 0.00 0.00 0.00 60
20260830124503 66 25 0.0 2.6 0.00 0.00 0.00 59
20260830123603 66 38 1.7 4.3 0.00 0.00 0.00 57
20260830122703 68 102 1.7 3.5 0.00 0.00 0.00 56